• In Kazakhstan
  • List of Countries
  • For 7 days
  • Water Temperature
  • Weather Map
  • News
  • Weather Widgets
  • user-avatar
    Login

    Hourly Weather Maturín

    Today, 7 June, Sunday

    Time Temperature Precipitation Wind Pressure Humidity
    00:00 +26°C° 0 mm 1 mps 757 mmHg 94%
    01:00 +26°C° 0 mm 1 mps 757 mmHg 95%
    02:00 +25°C° 0 mm 1 mps 756 mmHg 97%
    03:00 +25°C° 0 mm 1 mps 756 mmHg 97%
    04:00 +25°C° 0 mm 1 mps 756 mmHg 97%
    05:00 +25°C° 0 mm 1 mps 757 mmHg 98%
    06:00 +26°C° 0 mm 1 mps 757 mmHg 93%
    07:00 +27°C° 0 mm 1 mps 757 mmHg 88%
    08:00 +29°C° 0 mm 1 mps 758 mmHg 84%
    09:00 +30°C° 0.1 mm 1 mps 758 mmHg 75%
    10:00 +32°C° 0.1 mm 2 mps 758 mmHg 67%
    11:00 +35°C° 0.1 mm 2 mps 758 mmHg 58%
    12:00 +35°C° 0.5 mm 2 mps 757 mmHg 59%
    13:00 +35°C° 0.5 mm 3 mps 756 mmHg 60%
    14:00 +35°C° 0.5 mm 4 mps 755 mmHg 61%
    15:00 +34°C° 0.3 mm 4 mps 755 mmHg 64%
    16:00 +33°C° 0.3 mm 4 mps 755 mmHg 66%
    17:00 +33°C° 0.3 mm 3 mps 754 mmHg 69%
    18:00 +30°C° 0 mm 3 mps 755 mmHg 76%
    19:00 +29°C° 0 mm 2 mps 755 mmHg 83%
    20:00 +27°C° 0 mm 2 mps 755 mmHg 90%
    21:00 +27°C° 0 mm 2 mps 756 mmHg 91%
    22:00 +27°C° 0 mm 2 mps 756 mmHg 92%
    23:00 +26°C° 0 mm 2 mps 757 mmHg 93%

    Tomorrow, 8 June, Monday

    Time Temperature Precipitation Wind Pressure Humidity
    00:00 +26°C° 0 mm 1 mps 756 mmHg 94%
    01:00 +26°C° 0 mm 1 mps 756 mmHg 95%
    02:00 +26°C° 0 mm 1 mps 756 mmHg 96%
    03:00 +25°C° 0 mm 1 mps 756 mmHg 97%
    04:00 +25°C° 0 mm 1 mps 756 mmHg 97%
    05:00 +23°C° 0 mm 0 mps 756 mmHg 97%
    06:00 +24°C° 0 mm 0 mps 756 mmHg 93%
    07:00 +25°C° 0 mm 0 mps 756 mmHg 88%
    08:00 +26°C° 0 mm 0 mps 757 mmHg 84%
    09:00 +28°C° 0 mm 0 mps 757 mmHg 73%
    10:00 +32°C° 0 mm 1 mps 757 mmHg 63%
    11:00 +35°C° 0 mm 1 mps 757 mmHg 53%
    12:00 +35°C° 0 mm 1 mps 756 mmHg 49%
    13:00 +37°C° 0 mm 2 mps 755 mmHg 46%
    14:00 +38°C° 0 mm 2 mps 755 mmHg 42%
    15:00 +36°C° 0.1 mm 3 mps 754 mmHg 49%
    16:00 +35°C° 0.1 mm 3 mps 754 mmHg 55%
    17:00 +34°C° 0.1 mm 4 mps 754 mmHg 62%
    18:00 +32°C° 0.1 mm 4 mps 754 mmHg 68%
    19:00 +30°C° 0.1 mm 3 mps 755 mmHg 74%
    20:00 +28°C° 0.1 mm 3 mps 755 mmHg 81%
    21:00 +28°C° 0.1 mm 2 mps 755 mmHg 84%
    22:00 +27°C° 0.1 mm 2 mps 756 mmHg 88%
    23:00 +26°C° 0.1 mm 2 mps 756 mmHg 92%

    Day after tomorrow, 9 June, Tuesday

    Time Temperature Precipitation Wind Pressure Humidity
    00:00 +26°C° 0.1 mm 1 mps 756 mmHg 93%
    01:00 +26°C° 0.1 mm 1 mps 755 mmHg 95%
    02:00 +24°C° 0.1 mm 0 mps 755 mmHg 96%
    03:00 +23°C° 0.1 mm 0 mps 755 mmHg 96%
    04:00 +23°C° 0.1 mm 0 mps 755 mmHg 96%
    05:00 +23°C° 0.1 mm 0 mps 755 mmHg 97%
    06:00 +24°C° 0.7 mm 0 mps 755 mmHg 92%
    07:00 +27°C° 0.7 mm 1 mps 755 mmHg 88%
    08:00 +28°C° 0.7 mm 1 mps 756 mmHg 84%
    09:00 +29°C° 1 mm 1 mps 756 mmHg 80%
    10:00 +30°C° 1 mm 1 mps 756 mmHg 75%
    11:00 +31°C° 1 mm 2 mps 756 mmHg 70%
    12:00 +30°C° 0.6 mm 2 mps 755 mmHg 72%
    13:00 +30°C° 0.6 mm 2 mps 755 mmHg 74%
    14:00 +29°C° 0.6 mm 3 mps 754 mmHg 76%
    15:00 +29°C° 0.1 mm 3 mps 754 mmHg 78%
    16:00 +28°C° 0.1 mm 2 mps 754 mmHg 80%
    17:00 +27°C° 0.1 mm 2 mps 753 mmHg 81%
    18:00 +27°C° 0 mm 2 mps 754 mmHg 83%
    19:00 +27°C° 0 mm 2 mps 754 mmHg 84%
    20:00 +26°C° 0 mm 1 mps 755 mmHg 85%
    21:00 +26°C° 0 mm 1 mps 755 mmHg 87%
    22:00 +26°C° 0 mm 1 mps 756 mmHg 88%
    23:00 +26°C° 0 mm 1 mps 756 mmHg 90%

    10 June, Wednesday

    Time Temperature Precipitation Wind Pressure Humidity
    00:00 +26°C° 0.3 mm 1 mps 756 mmHg 91%
    01:00 +26°C° 0.3 mm 1 mps 755 mmHg 93%
    02:00 +25°C° 0.3 mm 1 mps 755 mmHg 95%
    03:00 +25°C° 0.1 mm 1 mps 755 mmHg 95%
    04:00 +25°C° 0.1 mm 1 mps 755 mmHg 95%
    05:00 +25°C° 0.1 mm 1 mps 754 mmHg 95%
    06:00 +26°C° 0 mm 1 mps 755 mmHg 92%
    07:00 +27°C° 0 mm 1 mps 755 mmHg 89%
    08:00 +28°C° 0 mm 1 mps 755 mmHg 86%
    09:00 +29°C° 0.5 mm 1 mps 756 mmHg 81%
    10:00 +30°C° 0.5 mm 2 mps 756 mmHg 76%
    11:00 +32°C° 0.5 mm 2 mps 756 mmHg 71%
    12:00 +32°C° 1.2 mm 2 mps 755 mmHg 69%
    13:00 +32°C° 1.2 mm 2 mps 754 mmHg 68%
    14:00 +32°C° 1.2 mm 2 mps 754 mmHg 67%
    15:00 +32°C° 1.4 mm 2 mps 753 mmHg 71%
    16:00 +31°C° 1.4 mm 3 mps 753 mmHg 75%
    17:00 +30°C° 1.4 mm 3 mps 753 mmHg 79%
    18:00 +29°C° 0.5 mm 3 mps 753 mmHg 83%
    19:00 +28°C° 0.5 mm 2 mps 754 mmHg 87%
    20:00 +27°C° 0.5 mm 2 mps 754 mmHg 91%
    21:00 +26°C° 0 mm 2 mps 755 mmHg 92%
    22:00 +26°C° 0 mm 2 mps 755 mmHg 93%
    23:00 +26°C° 0 mm 2 mps 756 mmHg 95%

    11 June, Thursday

    Time Temperature Precipitation Wind Pressure Humidity
    00:00 +25°C° 0 mm 1 mps 755 mmHg 96%
    01:00 +25°C° 0 mm 1 mps 755 mmHg 97%
    02:00 +25°C° 0 mm 1 mps 754 mmHg 98%
    03:00 +25°C° 0 mm 1 mps 754 mmHg 98%
    04:00 +25°C° 0 mm 1 mps 755 mmHg 98%
    05:00 +25°C° 0 mm 1 mps 755 mmHg 98%
    06:00 +26°C° 0.6 mm 2 mps 755 mmHg 94%
    07:00 +27°C° 0.6 mm 3 mps 756 mmHg 90%
    08:00 +27°C° 0.6 mm 3 mps 756 mmHg 87%
    09:00 +27°C° 0.2 mm 3 mps 756 mmHg 86%
    10:00 +27°C° 0.2 mm 3 mps 756 mmHg 86%
    11:00 +27°C° 0.2 mm 2 mps 757 mmHg 86%
    12:00 +27°C° 0.6 mm 3 mps 756 mmHg 87%
    13:00 +27°C° 0.6 mm 3 mps 756 mmHg 89%
    14:00 +27°C° 0.6 mm 3 mps 755 mmHg 90%
    15:00 +27°C° 0.1 mm 2 mps 755 mmHg 91%
    16:00 +26°C° 0.1 mm 2 mps 754 mmHg 91%
    17:00 +26°C° 0.1 mm 2 mps 754 mmHg 92%
    18:00 +26°C° 0 mm 1 mps 754 mmHg 93%
    19:00 +25°C° 0 mm 1 mps 755 mmHg 94%
    20:00 +25°C° 0 mm 1 mps 755 mmHg 95%
    21:00 +25°C° 0 mm 1 mps 756 mmHg 95%
    22:00 +25°C° 0 mm 1 mps 756 mmHg 95%
    23:00 +23°C° 0 mm 0 mps 756 mmHg 96%

    12 June, Friday

    Time Temperature Precipitation Wind Pressure Humidity
    00:00 +25°C° 0 mm 1 mps 756 mmHg 96%
    01:00 +25°C° 0 mm 1 mps 756 mmHg 96%
    02:00 +25°C° 0 mm 1 mps 755 mmHg 96%
    03:00 +24°C° 0 mm 1 mps 755 mmHg 97%
    04:00 +24°C° 0 mm 1 mps 755 mmHg 97%
    05:00 +24°C° 0 mm 1 mps 755 mmHg 98%
    06:00 +25°C° 0.1 mm 1 mps 756 mmHg 93%
    07:00 +26°C° 0.1 mm 1 mps 756 mmHg 89%
    08:00 +28°C° 0.1 mm 1 mps 756 mmHg 85%
    09:00 +29°C° 0.3 mm 2 mps 756 mmHg 77%
    10:00 +31°C° 0.3 mm 2 mps 756 mmHg 70%
    11:00 +33°C° 0.3 mm 3 mps 756 mmHg 62%
    12:00 +33°C° 0.3 mm 3 mps 755 mmHg 62%
    13:00 +34°C° 0.3 mm 3 mps 755 mmHg 61%
    14:00 +34°C° 0.3 mm 3 mps 754 mmHg 61%
    15:00 +33°C° 0.7 mm 3 mps 754 mmHg 67%
    16:00 +31°C° 0.7 mm 3 mps 754 mmHg 72%
    17:00 +30°C° 0.7 mm 3 mps 753 mmHg 78%
    18:00 +29°C° 0.2 mm 3 mps 754 mmHg 83%
    19:00 +27°C° 0.2 mm 2 mps 754 mmHg 87%
    20:00 +26°C° 0.2 mm 2 mps 755 mmHg 91%
    21:00 +26°C° 0 mm 1 mps 755 mmHg 93%
    22:00 +25°C° 0 mm 1 mps 756 mmHg 94%
    23:00 +25°C° 0 mm 1 mps 756 mmHg 95%
    Show more